Home   Weather   Fürstenfeld   Past weeks

Flag for Austria Past Weather in Fürstenfeld, Styria, Austria — Yesterday and Last 2 Weeks

Now
55 °F

Cool.


Feels Like: 55 °F
Forecast: 47 / 73 °F
Wind: 1 mph from Southwest

Location: Murska Sobota

Current Time: Sep 30, 2016 at 10:30:59 AM

Latest Report: Sep 30, 2016 at 9:00 AM


Visibility: N/A

Pressure: 30.10 "Hg

Humidity: 93%

Dew Point: 53 °F

Location of FürstenfeldLocation

Past Weather in Fürstenfeld — Graph

°F

Fürstenfeld Temperature Yesterday

Maximum temperature yesterday: 78 °F (at 4:00 PM)
Minimum temperature yesterday: 45 °F (at 7:00 AM)
Average temperature yesterday: 58 °F

High & Low Weather Summary for the Past Weeks

 TemperatureHumidityPressure
High82 °F (Sep 16, 2:00 PM)99% (Sep 25, 5:00 AM)30.42 "Hg (Sep 25, 5:00 AM)
Low38 °F (Sep 23, 7:00 AM)38% (Sep 25, 4:00 PM)29.75 "Hg (Sep 19, 3:00 PM)
Average59 °F76%30.10 "Hg
* Reported Sep 15 9:00 AM — Sep 30 9:00 AM, Fürstenfeld, Weather by CustomWeather, © 2016

Note: Actual official high and low records may vary slightly from our data, if they occured in-between our weather recording intervals... More about our weather records

Advertising

Fürstenfeld Weather History for the Previous 24 Hours

Scroll right to see more
 ConditionsComfort  
Time TempWeatherWind HumidityBarometerVisibility
9:00 AM
Fri, Sep 30
55 °FCool.1 mph93%30.10 "HgN/A
8:00 AM49 °FFog.No wind98%30.10 "Hg2 mi
7:00 AM46 °FFog.1 mph99%30.09 "Hg2 mi
6:00 AM46 °FCool.1 mph98%30.09 "HgN/A
5:00 AM47 °FCool.No wind97%30.09 "HgN/A
4:00 AM47 °FCool.No wind96%30.09 "HgN/A
3:00 AM49 °FCool.1 mph97%30.10 "HgN/A
2:00 AM50 °FCool.1 mph97%30.11 "HgN/A
1:00 AM51 °FCool.1 mph93%30.11 "HgN/A
12:00 AM53 °FCool.1 mph93%30.11 "HgN/A
11:00 PM
Thu, Sep 29
54 °FCool.1 mph87%30.11 "HgN/A
10:00 PM58 °FCool.2 mph80%30.11 "HgN/A
9:00 PM61 °FCool.2 mph71%30.11 "HgN/A
8:00 PM65 °FPassing clouds.2 mph64%30.11 "Hg6 mi
7:00 PM69 °FMild.2 mph60%30.11 "HgN/A
6:00 PM75 °FMild.1 mph52%30.11 "HgN/A
5:00 PM77 °FMild.3 mph49%30.13 "HgN/A
4:00 PM78 °FWarm.3 mph46%30.14 "HgN/A
2:00 PM75 °FPartly sunny.2 mph49%30.20 "Hg6 mi
1:00 PM74 °FMild.1 mph52%30.23 "HgN/A
11:00 AM66 °FMild.1 mph63%30.29 "HgN/A
Weather by CustomWeather, © 2016

See weather overviewHow to use our weather pages